Home > Weather > Daytona Beach > Past weeks

Flag for USA Weather for the Past 2 Weeks in Daytona Beach, Florida, USA

Now
79 °F

Mostly cloudy.


Feels Like: 81 °F
Forecast: 71 / 85 °F
Wind: 3 mph from Southeast

Location: Daytona Beach Regional Airport

Current Time: Apr 28, 2016 at 8:58:16 PM

Latest Report: Apr 28, 2016 at 7:53 PM


Visibility: 10 mi

Pressure: 29.97 "Hg

Humidity: 65%

Dew Point: 66 °F

Location of Daytona BeachLocation

Historic Weather in Daytona Beach — Graph

°F

Daytona Beach Temperature Yesterday

Maximum temperature yesterday: 84 °F (at 1:53 PM)
Minimum temperature yesterday: 64 °F (at 5:53 AM)
Average temperature yesterday: 74 °F

High & Low Weather Summary for the Past Weeks

 TemperatureHumidityPressure
High87 °F (Apr 28, 1:53 PM)100% (Apr 14, 4:53 AM)30.26 "Hg (Apr 14, 4:53 AM)
Low56 °F (Apr 20, 5:53 AM)45% (Apr 19, 2:53 PM)29.88 "Hg (Apr 23, 6:53 PM)
Average71 °F75%30.05 "Hg
* Reported Apr 13 6:53 PM — Apr 28 6:53 PM, Daytona Beach, Weather by CustomWeather, © 2016

Note: Actual official high and low records may vary slightly from our data, if they occured in-between our weather recording intervals... More about our weather records

Advertising

Daytona Beach Weather History for the Previous 24 Hours

Scroll right to see more
 ConditionsComfort  
Time TempWeatherWind HumidityBarometerVisibility
6:53 PM
Thu, Apr 28
81 °FBroken clouds.5 mph60%29.96 "Hg10 mi
5:53 PM82 °FPartly sunny.7 mph60%29.95 "Hg10 mi
4:53 PM83 °FBroken clouds.7 mph61%29.95 "Hg10 mi
3:53 PM82 °FScattered clouds.6 mph63%29.96 "Hg10 mi
2:53 PM85 °FScattered clouds.9 mph55%29.97 "Hg10 mi
1:53 PM87 °FScattered clouds.9 mph50%29.99 "Hg10 mi
12:53 PM86 °FScattered clouds.8 mph53%30.00 "Hg10 mi
11:53 AM83 °FScattered clouds.7 mph61%30.01 "Hg10 mi
10:53 AM81 °FPartly sunny.9 mph65%30.01 "Hg10 mi
9:53 AM78 °FScattered clouds.12 mph66%29.99 "Hg10 mi
8:53 AM74 °FScattered clouds.7 mph76%29.99 "Hg10 mi
7:53 AM69 °FPartly sunny.7 mph84%29.99 "Hg10 mi
6:53 AM67 °FPassing clouds.3 mph87%29.97 "Hg10 mi
5:53 AM68 °FPassing clouds.5 mph84%29.95 "Hg10 mi
4:53 AM69 °FPassing clouds.5 mph81%29.94 "Hg10 mi
3:53 AM69 °FPassing clouds.7 mph81%29.94 "Hg10 mi
2:53 AM70 °FClear.6 mph79%29.94 "Hg10 mi
1:53 AM70 °FPassing clouds.6 mph81%29.97 "Hg10 mi
12:53 AM69 °FPassing clouds.3 mph84%29.97 "Hg10 mi
11:53 PM
Wed, Apr 27
69 °FPassing clouds.3 mph84%29.98 "Hg10 mi
10:53 PM72 °FPassing clouds.6 mph76%29.96 "Hg10 mi
9:53 PM74 °FClear.8 mph71%29.95 "Hg10 mi
8:53 PM75 °FPassing clouds.6 mph71%29.93 "Hg10 mi
Weather by CustomWeather, © 2016

See weather overviewHow to use our weather pages